Regional Weather Roundup
Issued by NWS

Home | Current Version | Previous Version | Text Only | Print | Product List | Glossary Off
Versions: 1 2 3 4 5 6 7 8 9 10 11 12 13 14 15 16 17 18 19 20 21 22 23 24 25 26 27 28 29 30 31 32 33 34 35 36 37 38 39 40 41 42 43 44 45 46 47 48 49 50

000
ASUS43 KLMK 180402
RWRKY
KENTUCKY REGIONAL WEATHER ROUNDUP
NATIONAL WEATHER SERVICE LOUISVILLE KY
1200 AM EDT FRI APR 18 2014

NOTE "FAIR" INDICATES FEW OR NO CLOUDS BELOW 12,000 FEET
WITH NO SIGNIFICANT WEATHER AND/OR OBSTRUCTIONS TO VISIBILITY.

KYZ001>023-026-027-061>063-070>075-180500-
WESTERN AND SOUTH CENTRAL KENTUCKY

CITY           SKY/WX    TMP DP  RH WIND       PRES   REMARKS
PADUCAH        MOCLDY    55  42  61 E3        30.24F
HENDERSON      MOCLDY    52  39  62 SE6       30.26S
OWENSBORO      MOCLDY    55  40  57 CALM      30.27S
HOPKINSVILLE   MOCLDY    54  41  62 E2        30.26S
BOWLING GREEN  MOCLDY    50  38  63 CALM      30.28S
GLASGOW        NOT AVBL
$$

KYZ024-025-028>034-038-045-046-053-180500-
NORTH CENTRAL KENTUCKY

CITY           SKY/WX    TMP DP  RH WIND       PRES   REMARKS
LOUISVILLE/SDF MOCLDY    56  38  50 CALM      30.27S
LOUISVILLE/LOU PTCLDY    55  39  54 CALM      30.27F
FORT KNOX      PTCLDY    49  37  63 CALM      30.26F
$$

KYZ035>037-039>044-047>052-055>060-089>105-180500-
NORTHEAST KENTUCKY

CITY           SKY/WX    TMP DP  RH WIND       PRES   REMARKS
LEXINGTON      PTCLDY    50  35  56 E6        30.28F
COVINGTON      MOCLDY    51  35  54 CALM      30.27F
FRANKFORT      PTCLDY    45  37  73 CALM      30.26F
$$

KYZ054-064>069-076>088-106>120-180500-
SOUTHEAST KENTUCKY

CITY           SKY/WX    TMP DP  RH WIND       PRES   REMARKS
JACKSON        CLEAR     59  19  21 CALM      30.28F
LONDON         PTCLDY    49  35  58 CALM      30.29S
SOMERSET       NOT AVBL
MIDDLESBORO    NOT AVBL
MONTICELLO     PTCLDY    43  35  73 CALM      30.31F
$$




USA.gov is the U.S. government's official web portal to all federal, state and local government web resources and services.